Previsão horária em Abdul-Zavod

Hoje, 19 Janeiro, Terça-feira

Tempo Temperatura Precipitação Vento Pressão Humidade
00:00 -19°C° 0.1 mm 3 m/s 750 mmHg 94%
01:00 -19°C° 0.4 mm 3 m/s 750 mmHg 95%
02:00 -19°C° 0.4 mm 3 m/s 749 mmHg 95%
03:00 -19°C° 0.4 mm 3 m/s 749 mmHg 96%
04:00 -19°C° 0.4 mm 3 m/s 749 mmHg 96%
05:00 -19°C° 0.4 mm 3 m/s 748 mmHg 96%
06:00 -17°C° 0.4 mm 2 m/s 748 mmHg 96%
07:00 -17°C° 0.2 mm 2 m/s 748 mmHg 96%
08:00 -17°C° 0.2 mm 2 m/s 748 mmHg 95%
09:00 -17°C° 0.2 mm 2 m/s 748 mmHg 95%
10:00 -16°C° 0.1 mm 2 m/s 748 mmHg 94%
11:00 -14°C° 0.1 mm 1 m/s 748 mmHg 92%
12:00 -13°C° 0.1 mm 0 m/s 748 mmHg 90%
13:00 -14°C° 0 mm 1 m/s 748 mmHg 92%
14:00 -14°C° 0 mm 1 m/s 748 mmHg 93%
15:00 -14°C° 0 mm 1 m/s 747 mmHg 95%
16:00 -15°C° 0 mm 1 m/s 747 mmHg 95%
17:00 -16°C° 0 mm 1 m/s 748 mmHg 96%
18:00 -17°C° 0 mm 1 m/s 748 mmHg 96%
19:00 -17°C° 0 mm 1 m/s 748 mmHg 96%
20:00 -18°C° 0 mm 1 m/s 748 mmHg 97%
21:00 -18°C° 0 mm 1 m/s 748 mmHg 97%
22:00 -19°C° 0 mm 1 m/s 748 mmHg 97%
23:00 -23°C° 0 mm 2 m/s 748 mmHg 98%

Amanhã, 20 Janeiro, Quarta-feira

Tempo Temperatura Precipitação Vento Pressão Humidade
00:00 -24°C° 0 mm 2 m/s 748 mmHg 99%
01:00 -25°C° 0 mm 2 m/s 748 mmHg 99%
02:00 -26°C° 0 mm 2 m/s 748 mmHg 99%
03:00 -26°C° 0 mm 2 m/s 749 mmHg 99%
04:00 -27°C° 0 mm 2 m/s 749 mmHg 98%
05:00 -27°C° 0 mm 2 m/s 749 mmHg 98%
06:00 -24°C° 0 mm 1 m/s 749 mmHg 98%
07:00 -24°C° 0 mm 1 m/s 749 mmHg 98%
08:00 -24°C° 0 mm 1 m/s 749 mmHg 98%
09:00 -24°C° 0 mm 1 m/s 750 mmHg 97%
10:00 -26°C° 0 mm 2 m/s 750 mmHg 97%
11:00 -25°C° 0 mm 2 m/s 750 mmHg 97%
12:00 -25°C° 0 mm 3 m/s 750 mmHg 96%
13:00 -25°C° 0 mm 3 m/s 750 mmHg 97%
14:00 -24°C° 0 mm 2 m/s 750 mmHg 97%
15:00 -25°C° 0 mm 2 m/s 750 mmHg 97%
16:00 -25°C° 0 mm 2 m/s 750 mmHg 97%
17:00 -25°C° 0 mm 2 m/s 751 mmHg 97%
18:00 -25°C° 0 mm 2 m/s 751 mmHg 97%
19:00 -25°C° 0 mm 2 m/s 751 mmHg 97%
20:00 -25°C° 0 mm 2 m/s 751 mmHg 97%
21:00 -24°C° 0 mm 2 m/s 751 mmHg 97%
22:00 -24°C° 0.1 mm 2 m/s 751 mmHg 97%
23:00 -24°C° 0.1 mm 2 m/s 752 mmHg 98%

Depois de amanhã, 21 Janeiro, Quinta-feira

Tempo Temperatura Precipitação Vento Pressão Humidade
00:00 -25°C° 0.1 mm 3 m/s 752 mmHg 98%
01:00 -24°C° 0 mm 2 m/s 752 mmHg 98%
02:00 -24°C° 0 mm 2 m/s 752 mmHg 98%
03:00 -25°C° 0 mm 2 m/s 752 mmHg 98%
04:00 -25°C° 0 mm 2 m/s 752 mmHg 98%
05:00 -25°C° 0 mm 2 m/s 752 mmHg 99%
06:00 -25°C° 0 mm 2 m/s 752 mmHg 99%
07:00 -24°C° 0 mm 2 m/s 753 mmHg 99%
08:00 -25°C° 0 mm 3 m/s 753 mmHg 98%
09:00 -24°C° 0 mm 3 m/s 753 mmHg 98%
10:00 -23°C° 0 mm 3 m/s 753 mmHg 97%
11:00 -22°C° 0 mm 3 m/s 753 mmHg 96%
12:00 -21°C° 0 mm 3 m/s 753 mmHg 96%
13:00 -21°C° 0 mm 3 m/s 753 mmHg 96%
14:00 -21°C° 0 mm 3 m/s 753 mmHg 96%
15:00 -21°C° 0 mm 3 m/s 753 mmHg 96%
16:00 -21°C° 0 mm 3 m/s 753 mmHg 96%
17:00 -21°C° 0 mm 3 m/s 753 mmHg 97%
18:00 -21°C° 0 mm 3 m/s 753 mmHg 97%
19:00 -21°C° 0 mm 3 m/s 753 mmHg 97%
20:00 -21°C° 0 mm 3 m/s 753 mmHg 97%
21:00 -21°C° 0 mm 3 m/s 752 mmHg 97%
22:00 -20°C° 0 mm 4 m/s 752 mmHg 96%
23:00 -20°C° 0 mm 4 m/s 751 mmHg 96%

22 Janeiro, Sexta-feira

Tempo Temperatura Precipitação Vento Pressão Humidade
00:00 -21°C° 0 mm 5 m/s 750 mmHg 95%
01:00 -21°C° 0 mm 6 m/s 750 mmHg 94%
02:00 -20°C° 0 mm 7 m/s 749 mmHg 92%
03:00 -19°C° 0 mm 8 m/s 748 mmHg 91%
04:00 -19°C° 0.6 mm 8 m/s 747 mmHg 91%
05:00 -19°C° 0.6 mm 7 m/s 747 mmHg 92%
06:00 -18°C° 0.6 mm 7 m/s 746 mmHg 93%
07:00 -17°C° 0.2 mm 7 m/s 747 mmHg 93%
08:00 -17°C° 0.2 mm 7 m/s 747 mmHg 93%
09:00 -15°C° 0.2 mm 6 m/s 747 mmHg 93%
10:00 -14°C° 0.2 mm 6 m/s 747 mmHg 93%
11:00 -12°C° 0.2 mm 6 m/s 747 mmHg 93%
12:00 -11°C° 0.2 mm 5 m/s 747 mmHg 93%
13:00 -10°C° 0.2 mm 5 m/s 747 mmHg 94%
14:00 -9°C° 0.2 mm 4 m/s 747 mmHg 94%
15:00 -8°C° 0.2 mm 4 m/s 747 mmHg 95%
16:00 -8°C° 0.2 mm 4 m/s 747 mmHg 95%
17:00 -7°C° 0.2 mm 3 m/s 747 mmHg 95%
18:00 -7°C° 0.2 mm 3 m/s 748 mmHg 96%
19:00 -6°C° 0.1 mm 3 m/s 748 mmHg 96%
20:00 -4°C° 0.1 mm 3 m/s 748 mmHg 97%
21:00 -2°C° 0.1 mm 3 m/s 748 mmHg 97%
22:00 -1°C° 0.2 mm 3 m/s 748 mmHg 98%
23:00 -2°C° 0.2 mm 4 m/s 748 mmHg 99%

23 Janeiro, Sábado

Tempo Temperatura Precipitação Vento Pressão Humidade
00:00 -1°C° 0.2 mm 5 m/s 748 mmHg 99%
01:00 -1°C° 0.1 mm 5 m/s 748 mmHg 99%
02:00 -1°C° 0.1 mm 5 m/s 749 mmHg 99%
03:00 -1°C° 0.1 mm 5 m/s 749 mmHg 99%
04:00 -1°C° 0 mm 5 m/s 749 mmHg 98%
05:00 -1°C° 0 mm 4 m/s 750 mmHg 98%
06:00 -1°C° 0 mm 4 m/s 750 mmHg 98%
07:00 -1°C° 0 mm 4 m/s 750 mmHg 98%
08:00 -1°C° 0 mm 5 m/s 750 mmHg 98%
09:00 -1°C° 0 mm 5 m/s 751 mmHg 98%
10:00 -1°C° 0 mm 5 m/s 751 mmHg 98%
11:00 -1°C° 0 mm 5 m/s 751 mmHg 98%
12:00 -2°C° 0 mm 6 m/s 751 mmHg 98%
13:00 -2°C° 0 mm 6 m/s 751 mmHg 98%
14:00 -2°C° 0 mm 6 m/s 751 mmHg 97%
15:00 -2°C° 0 mm 6 m/s 751 mmHg 96%
16:00 -2°C° 0.1 mm 6 m/s 752 mmHg 97%
17:00 -2°C° 0.1 mm 6 m/s 752 mmHg 97%
18:00 -2°C° 0.1 mm 6 m/s 752 mmHg 97%
19:00 -1°C° 0 mm 5 m/s 752 mmHg 97%
20:00 -1°C° 0 mm 5 m/s 752 mmHg 97%
21:00 -1°C° 0 mm 4 m/s 752 mmHg 97%
22:00 -1°C° 0.1 mm 5 m/s 753 mmHg 97%
23:00 -1°C° 0.1 mm 5 m/s 753 mmHg 97%

24 Janeiro, Domingo

Tempo Temperatura Precipitação Vento Pressão Humidade
00:00 -1°C° 0.1 mm 5 m/s 753 mmHg 98%
01:00 -2°C° 0 mm 5 m/s 753 mmHg 97%
02:00 -4°C° 0 mm 5 m/s 753 mmHg 97%
03:00 -4°C° 0 mm 5 m/s 753 mmHg 96%
04:00 -4°C° 0.1 mm 5 m/s 753 mmHg 96%
05:00 -5°C° 0.1 mm 5 m/s 754 mmHg 96%
06:00 -5°C° 0.1 mm 5 m/s 754 mmHg 96%
07:00 -5°C° 0.4 mm 5 m/s 754 mmHg 96%
08:00 -5°C° 0.4 mm 5 m/s 754 mmHg 95%
09:00 -5°C° 0.4 mm 5 m/s 754 mmHg 95%
10:00 -5°C° 0.4 mm 5 m/s 754 mmHg 95%
11:00 -5°C° 0.4 mm 5 m/s 755 mmHg 95%
12:00 -5°C° 0.4 mm 5 m/s 755 mmHg 95%
13:00 -5°C° 0.1 mm 5 m/s 755 mmHg 96%
14:00 -4°C° 0.1 mm 5 m/s 755 mmHg 96%
15:00 -3°C° 0.1 mm 4 m/s 755 mmHg 96%
16:00 -4°C° 0 mm 5 m/s 756 mmHg 96%
17:00 -4°C° 0 mm 5 m/s 756 mmHg 96%
18:00 -4°C° 0 mm 5 m/s 756 mmHg 96%
19:00 -4°C° 0 mm 5 m/s 756 mmHg 96%
20:00 -4°C° 0 mm 5 m/s 756 mmHg 95%
21:00 -4°C° 0 mm 5 m/s 757 mmHg 94%
22:00 -4°C° 0.1 mm 5 m/s 757 mmHg 94%
23:00 -4°C° 0.1 mm 5 m/s 757 mmHg 94%
Mostrar mais